Wilmington, DE

1:43 AM EST on November 20, 2019 (GMT -0500)
New Castle County

Weather History for KILG - August, 2019

Change the Weather History Date:

Tuesday, August 13, 2019

  Actual Average Record
Temperature  
Mean Temperature 77 °F 76 °F  
Max Temperature 80 °F 85 °F 99 °F (1896)
Min Temperature 74 °F 67 °F 49 °F (1930)
Degree Days  
Heating Degree Days 0 0  
Month to date heating degree days 0 0  
Since 1 June heating degree days 5 15  
Since 1 July heating degree days 0 0  
Cooling Degree Days 12 11  
Month to date cooling degree days 166 145  
Year to date cooling degree days 1028 822  
Since 1 June cooling degree days 896 743  
Growing Degree Days 28 (Base 50)    
Moisture  
Dew Point 71 °F    
Average Humidity 84    
Maximum Humidity 94    
Minimum Humidity 74    
Precipitation  
Precipitation 0.03 in 0.10 in 3.10 in (2013)
Month to date precipitation 0.94 1.47  
Year to date precipitation 34.40 26.98  
Snow  
Snow 0.00 in 0.00 in 0.00 in (1894)
Month to date snowfall 0.0 0.0  
Since 1 June snowfall 0.0 0.0  
Since 1 July snowfall 0.0 0.0  
Snow Depth 0.00 in    
Sea Level Pressure  
Sea Level Pressure 29.82 in    
Wind  
Wind Speed 4 mph (SW)    
Max Wind Speed 12 mph    
Max Gust Speed 15 mph    
Visibility 10 miles    
Events Rain    
T = Trace of Precipitation, MM = Missing Value Source: NWS Daily Summary

Daily Weather History Graph

Daily Weather History Graph

Search for Another Location

Airport or City:

Astronomy

Aug. 13, 2019 Rise Set
Actual Time 6:12 AM EDT 8:01 PM EDT
Civil Twilight 5:43 AM EDT 8:30 PM EDT
Nautical Twilight 5:08 AM EDT 9:05 PM EDT
Astronomical Twilight 4:30 AM EDT 9:43 PM EDT
Moon 7:14 PM EDT (8/13) 4:12 AM EDT (8/13)
Length of Visible Light 14h 46m
Length of Day
13h 48m
Waxing Gibbous, 97% of the Moon is Illuminated
Aug 13
Waxing Gibbous
Aug 15
Full
Aug 23
Last Quarter
Aug 30
New
Sep 5
First Quarter

Hourly Weather History & Observations

Time (EDT) Temp. Heat Index Dew Point Humidity Pressure Visibility Wind Dir Wind Speed Gust Speed Precip Events Conditions
12:51 AM 77.0 °F - 69.1 °F 76% 29.89 in 10.0 mi South 5.8 mph - N/A   Mostly Cloudy
1:51 AM 75.9 °F - 69.1 °F 79% 29.88 in 10.0 mi South 6.9 mph - N/A   Partly Cloudy
2:51 AM 75.0 °F - 69.1 °F 82% 29.86 in 10.0 mi South 9.2 mph - N/A   Partly Cloudy
3:51 AM 75.9 °F - 69.1 °F 79% 29.84 in 10.0 mi South 6.9 mph - N/A   Mostly Cloudy
4:51 AM 75.9 °F - 69.1 °F 79% 29.83 in 10.0 mi SSW 8.1 mph - N/A   Clear
5:51 AM 75.0 °F - 69.1 °F 82% 29.83 in 10.0 mi South 4.6 mph - N/A   Clear
6:51 AM 75.0 °F - 69.1 °F 82% 29.83 in 10.0 mi South 5.8 mph - N/A   Scattered Clouds
7:51 AM 75.9 °F - 70.0 °F 82% 29.83 in 10.0 mi South 5.8 mph - 0.00 in   Partly Cloudy
8:51 AM 78.1 °F - 71.1 °F 79% 29.84 in 10.0 mi SW 5.8 mph - N/A   Mostly Cloudy
9:51 AM 78.1 °F - 72.0 °F 81% 29.83 in 10.0 mi NW 3.5 mph - 0.00 in Rain Light Rain
10:51 AM 78.1 °F - 72.0 °F 81% 29.85 in 10.0 mi WSW 9.2 mph - 0.00 in   Overcast
11:51 AM 77.0 °F - 71.1 °F 82% 29.84 in 10.0 mi South 3.5 mph - 0.01 in   Overcast
12:51 PM 79.0 °F - 70.0 °F 74% 29.83 in 10.0 mi Calm Calm - N/A   Overcast
1:51 PM 79.0 °F - 71.1 °F 77% 29.82 in 10.0 mi South 4.6 mph - 0.00 in Rain Light Rain
2:51 PM 80.1 °F 83.8 °F 72.0 °F 76% 29.79 in 10.0 mi WSW 5.8 mph - 0.00 in Rain Light Rain
3:51 PM 80.1 °F 84.2 °F 73.0 °F 79% 29.78 in 10.0 mi Calm Calm - 0.01 in Rain Light Rain
4:51 PM 79.0 °F - 73.9 °F 84% 29.78 in 10.0 mi Calm Calm - 0.00 in   Mostly Cloudy
5:51 PM 79.0 °F - 72.0 °F 79% 29.78 in 10.0 mi SW 3.5 mph - N/A   Mostly Cloudy
6:51 PM 79.0 °F - 73.0 °F 82% 29.78 in 10.0 mi WSW 4.6 mph - 0.00 in   Overcast
7:51 PM 77.0 °F - 73.0 °F 88% 29.77 in 10.0 mi Calm Calm - 0.00 in Rain Light Rain
8:51 PM 75.9 °F - 73.9 °F 94% 29.79 in 8.0 mi NW 3.5 mph - 0.01 in   Scattered Clouds
9:51 PM 75.9 °F - 73.9 °F 94% 29.79 in 9.0 mi Calm Calm - N/A   Clear
10:51 PM 75.9 °F - 73.9 °F 94% 29.79 in 6.0 mi NNE 3.5 mph - N/A   Overcast
11:51 PM 75.0 °F - 73.9 °F 96% 29.79 in 6.0 mi North 4.6 mph - N/A   Overcast